Regional Weather Roundup
Issued by NWS

Home | Current Version | Previous Version | Text Only | Print | Product List | Glossary Off
Versions: 1 2 3 4 5 6 7 8 9 10 11 12 13 14 15 16 17 18 19 20 21 22 23 24 25 26 27 28 29 30 31 32 33 34 35 36 37 38 39 40 41 42 43 44 45 46 47 48 49 50

000
ASUS43 KMPX 261201
RWRMN
WEATHER ROUNDUP FOR MINNESOTA
NATIONAL WEATHER SERVICE TWIN CITIES/CHANHASSEN MN
700 AM CDT SUN APR 26 2015


NOTE: "FAIR" INDICATES FEW OR NO CLOUDS BELOW 12,000 FEET WITH NO
SIGNIFICANT WEATHER AND/OR OBSTRUCTIONS TO VISIBILITY. N/A MEANS
CURRENT SKY AND/OR WEATHER CONDITIONS ARE NOT AVAILABLE.

MNZ060>063-068>070-261300-
   Twin Cities Metro

CITY           SKY/WX    TMP DP  RH WIND       PRES   REMARKS
TWIN CITIES    CLEAR     37  24  59 N7        30.07R
6HR MIN TEMP:  36; 6HR MAX TEMP:  46;

ST PAUL        CLEAR     37  23  56 CALM      30.08R
CRYSTAL        CLEAR     35  23  61 N3        30.07R
BLAINE         CLEAR     34  27  75 NE3       30.07R
LAKEVILLE      CLEAR     34  25  69 CALM      30.05R
EDEN PRAIRIE   CLEAR     36  23  59 N7        30.05R
6HR MIN TEMP:  35; 6HR MAX TEMP:  45;

SOUTH ST PAUL  CLEAR     38  23  54 N5        30.07R
LAKE ELMO      FAIR      34  25  69 NE5       30.08R WCI  30
$$
MNZ001>005-007-008-013>017-022>024-027-028-261300-
   Northwest Minnesota

CITY           SKY/WX    TMP DP  RH WIND       PRES   REMARKS
BEMIDJI        CLEAR     26  23  87 CALM      30.11R
HALLOCK        CLEAR     39  28  65 SE12      30.08R
ROSEAU         CLEAR     34  27  75 SE3       30.11R
WARROAD        CLEAR     32  28  86 CALM      30.13R
THIEF RVR FALL CLEAR     36  27  69 CALM      30.11R
CROOKSTON      CLEAR     34  27  75 SE8       30.11R WCI  27
FOSSTON        CLEAR     34  19  55 SE3       30.11R
DETROIT LAKES  CLEAR     37  12  35 SE5       30.11R
MOORHEAD       CLEAR     34  25  69 S3        30.11R
PARK RAPIDS    CLEAR     31  18  58 CALM      30.11R
MAHNOMEN       FAIR      37  16  42 SE8       30.10R
$$
MNZ006-009>011-018-025>026-261300-
   North Central Minnesota

CITY           SKY/WX    TMP DP  RH WIND       PRES   REMARKS
BAUDETTE       CLEAR     33  26  75 E6        30.13R WCI  28
FLAG ISLAND    CLEAR     39  23  52 SE6       30.12R
INTL FALLS     CLEAR     27  23  85 CALM      30.14R
6HR MIN TEMP:  23; 6HR MAX TEMP:  39;

WASKISH        CLEAR     28  27  93 CALM      30.13R
BIG FORK       CLEAR     27  18  69 CALM      30.13R
LONGVILLE      CLEAR     25  19  80 CALM      30.12R
GRAND RAPIDS   CLEAR     25  14  63 CALM      30.11R
CRANE LAKE     CLEAR     21  19  93 CALM      30.16S
ORR            CLEAR     23  18  80 CALM      30.10R
COOK           CLEAR     23  19  86 CALM      30.13R
WALKER         FAIR      27  17  63 CALM      30.11R
$$
MNZ012-019>021-037-261300-
   Northeast Minnesota

CITY           SKY/WX    TMP DP  RH WIND       PRES   REMARKS
DULUTH         CLEAR     34  15  46 E3        30.10R
6HR MIN TEMP:  29; 6HR MAX TEMP:  34;

ELY            CLEAR     23  19  86 CALM      30.13R
HIBBING        CLEAR     24  18  77 NW5       30.11R WCI  18
EVELETH        CLEAR     23  19  86 CALM      30.12S
DULUTH HARBOR  CLEAR     32  28  86 CALM      30.14R
TWO HARBORS    CLEAR     36  19  51 CALM      30.10R
SILVER BAY     CLEAR     25  19  80 CALM      30.11R
GRAND MARAIS     N/A     42  19  39 N3        30.14R
G MARAIS ARPRT SUNNY     30  16  55 N6        30.12R WCI  24
$$
MNZ029>031-032-039>041-046>048-054>057-064-261300-
   West Central Minnesota

CITY           SKY/WX    TMP DP  RH WIND       PRES   REMARKS
FERGUS FALLS   FAIR      39   7  26 E5        30.12R
WHEATON        CLEAR     32  27  80 CALM      30.12R
MORRIS         CLEAR     34  25  69 E6        30.07R WCI  29
ALEXANDRIA     CLEAR     34  19  54 NE6       30.10R WCI  29
ELBOW LAKE     FAIR      37  20  51 E9        30.09R
WADENA         CLEAR     28  18  64 E5        30.10R WCI  23
GLENWOOD       CLEAR     32  21  64 NE7       30.09R WCI  26
APPLETON       CLEAR     34  27  75 CALM      30.08R
BENSON         CLEAR     34  21  60 E5        30.08R WCI  30
ORTONVILLE     CLEAR     30  27  86 CALM      30.09R
MADISON        CLEAR     30  27  86 NW3       30.08R
WILLMAR        FAIR      36  27  69 NE5       30.09R
$$
MNZ033>034-036-042>043-049>051-058-059-261300-
   Central Minnesota

CITY           SKY/WX    TMP DP  RH WIND       PRES   REMARKS
ST CLOUD       CLEAR     31  23  72 N3        30.09R
6HR MIN TEMP:  31; 6HR MAX TEMP:  38;

SAUK CENTRE    FAIR      34  22  61 NE3       30.09R
PAYNESVILLE    CLEAR     31  23  71 N3        30.09R
AITKIN         CLEAR     25  19  80 CALM      30.10R
PINE RIVER     CLEAR     27  18  69 CALM      30.15R
BRAINERD       CLEAR     29  23  78 NE3       30.12R
STAPLES        CLEAR     30  14  51 CALM      30.11R
LONG PRAIRIE   FAIR      32  18  55 NE5       30.10R WCI  27
LITTLE FALLS   CLEAR     30  19  64 CALM      30.10R
LITCHFIELD     CLEAR     34  27  75 NE5       30.08R WCI  30
BUFFALO        CLEAR     34  25  69 N5        30.08R WCI  30
MAPLE LAKE     CLEAR     33  27  77 NE5       30.08R WCI  29
$$
MNZ037-044-045-052-053-261300-
   East Central Minnesota

CITY           SKY/WX    TMP DP  RH WIND       PRES   REMARKS
PRINCETON      CLEAR     34  25  69 NE3       30.09R
MORA           CLEAR     32  23  69 CALM      30.11R
CAMBRIDGE      CLEAR     34  21  60 N3        30.07R
RUSH CITY      CLEAR     31  23  72 NE5       30.09R WCI  26
MOOSE LAKE     CLEAR     28  19  69 CALM      30.09R
HINCKLEY       FAIR      32  23  69 NE3       30.10R
CLOQUET        CLEAR     25  18  74 CALM      30.11R
MCGREGOR       CLEAR     28  21  74 CALM      30.11R
$$
MNZ071>073-080-081-089-090-097-098-261300-
   Southwest Minnesota

CITY           SKY/WX    TMP DP  RH WIND       PRES   REMARKS
MONTEVIDEO     CLEAR     34  28  80 CALM      30.09R
GRANITE FALLS  CLEAR     32  24  72 CALM      30.09R
CANBY          CLEAR     32  30  94 CALM      30.08R
MARSHALL       CLEAR     34  25  69 N3        30.06R
REDWOOD FALLS  CLEAR     35  24  64 NE6       30.06R WCI  30
OLIVIA         CLEAR     30  21  69 NE6       30.06R WCI  24
WINDOM         CLEAR     34  28  80 CALM      30.03R
WORTHINGTON    PTCLDY    34  28  80 NW5       30.04R WCI  30
JACKSON        CLEAR     32  30  93 N3        30.03R
TRACY          CLEAR     33  29  84 CALM      30.05R
SLAYTON        CLEAR     31  31 100 CALM      30.05R FOG
$$
MNZ065>067-074>077-082>085-091>093-261300-
   South Central Minnesota

CITY           SKY/WX    TMP DP  RH WIND       PRES   REMARKS
MANKATO        CLEAR     37  25  60 NE9       30.04R
NEW ULM        CLEAR     36  23  60 NE5       30.05R
ST JAMES       CLEAR     34  28  80 NW6       30.05R WCI  29
FAIRMONT       CLEAR     34  27  75 NW6       30.02R WCI  29
GLENCOE        CLEAR     34  26  71 N5        30.06R WCI  30
FARIBAULT      CLEAR     34  27  75 N3        30.04S
OWATONNA       CLEAR     30  27  86 CALM      30.04R
WASECA         CLEAR     34  28  80 NE9       30.04R WCI  26
ALBERT LEA     CLEAR     36  27  69 SE5       30.02R
$$
MNZ078>079-086>088-094>096-261300-
   Southeast Minnesota

CITY           SKY/WX    TMP DP  RH WIND       PRES   REMARKS
ROCHESTER      CLEAR     35  22  58 SE5       30.04R WCI  31
6HR MIN TEMP:  34; 6HR MAX TEMP:  44;

RED WING       CLEAR     36  25  64 E3        30.06R
STANTON        CLEAR     32  25  75 CALM      30.04R
DODGE CENTER   CLEAR     36  27  69 SE5       30.03R
WINONA         CLEAR     32  30  93 NW3       30.06R
AUSTIN         CLEAR     34  27  75 E5        30.03R WCI  30
PRESTON        CLEAR     36  19  49 CALM      30.04R
$$
ABBREVIATIONS USED IN REMARKS
   TC - TEMPERATURES IN CELSIUS
  WCI - WIND CHILL INDEX
   HX - HEAT INDEX
  VSB - VISIBILITY
$$



USA.gov is the U.S. government's official web portal to all federal, state and local government web resources and services.